Погода в Дакаре

Сенегал     14°46′52″N   17°16′57″W
темп.,
°C
ветер,
м/с
пор.,
м/с
влажн.,
%
обл.,
%
осадки,
мм/ч
давл.,
гПа
погр.,
м
17 апреля, сб
сб1700:00+21с814802 0.0 1011266
03:00+20с714815 0.0 1009309
06:00+20с714810 0.0 1010336
09:00+22с711720 0.0 1012379
12:00+24с79590 0.0 1012430
15:00+25ссз78585 0.0 1010342
18:00+23ссз710680 0.0 1009259
21:00+21ссз712805 0.0 1011241
18 апреля, вс
вс1800:00+21с71479100 0.0 1011251
03:00+21с8157937 0.0 1009297
06:00+20с8168385 0.0 1010330
09:00+22ссв5973100 0.0 1013339
12:00+26с5653100 0.0 1013419
15:00+25ссз7762100 0.0 1010261
18:00+23ссз71072100 0.0 1010227
21:00+21ссз71280100 0.0 1011234
19 апреля, пн
пн1900:00+21с81577100 0.0 1011247
03:00+21с71577100 0.0 1010309
06:00+21ссв61479100 0.0 1010322
09:00+23с7116698 0.0 1013325
12:00+26с7953100 0.0 1013396
15:00+25ссз7957100 0.0 1010336
18:00+23ссз796935 0.0 1010257
21:00+21ссз813839 0.0 1011232
20 апреля, вт
вт2000:00+21ссз814820 0.0 1011242
03:00+21ссз814821 0.0 1009270
06:00+20с815840 0.0 1010298
09:00+22с610705 0.0 1012350
12:00+25с58572 0.0 1012459
15:00+25ссз67570 0.0 1010427
18:00+23ссз79710 0.0 1010341
21:00+21ссз610850 0.0 1011307
21 апреля, ср
ср2100:00+20ссз610880 0.0 1011287
03:00+20ссз711890 0.0 1010312
06:00+20ссз712890 0.0 1010343
09:00+22ссз710760 0.0 1012368
12:00+24ссз45615 0.0 1013448
15:00+24ссз676596 0.0 1010439
18:00+22ссз677456 0.0 1010345
21:00+21ссз698645 0.0 1011363